Content
SEND FEEDBACK

Daily
Averages
Monthly
Summary
Peru

PISCO, PERU


Home > South America > Peru
Elevation: 23 feet     Latitude: 13 45S     Longitude: 076 17W

WEATHER
 
SELECT A DAY
Number of Records: 137,854;   Date Range: 1/1/01 - 12/18/14
 
SHARE

PRINT THIS DATA

[ ← Previous Day ]
WEATHER ALMANAC - FEBRUARY 13, 2013
[ Next Day → ]
[ °C ]   °F
Weather ElementAverageHighLow
Temperature73.8 °F82.4 °F (3:00 pm)66.2 °F (6:00 am)
Dewpoint67.3 °F70 °F (10:00 am)64.4 °F (4:00 am)
Humidity79.1 %94 % (6:00 am)63 % (4:00 pm)
Barometer29.84 in29.89 in (8:00 am)29.80 in (4:00 pm)
Wind Speed7.4 mph19.6 mph (6:00 pm)
Weather ElementAverage
Visibility5.4 mi
Wind DirectionS (177.6 °)

Weather ElementTotal
Precipitation---
Cooling Degree Days9.3 (Base 65)
Growing Degree Days24.3 (Base 50)
Averaged from 31 records on February 13, 2013
WEATHER CONDITIONS BREAKOUT
WIND DIRECTION BREAKOUT
WEATHER BY HOUR - FEBRUARY 13, 2013
[ °C ]   °F
Local TimeTemperatureDewpointHumidityBarometerVisibilityWind DirectionWind SpeedGust SpeedPrecipitationEventsConditions
1:00 AM71.0 °F66.0 °F81 %29.85 in6.0 miCalmPartly Cloudy
1:00 AM69.8 °F66.2 °F88 %29.86 inCalmClear
2:00 AM69.8 °F66.2 °F88 %29.86 inCalmClear
3:00 AM69.8 °F66.2 °F88 %29.83 inCalmClear
4:00 AM69.0 °F65.0 °F84 %29.82 in6.0 miENE (70°)2.3 mphPartly Cloudy
4:00 AM68.0 °F64.4 °F88 %29.83 inVariable2.3 mphClear
5:00 AM68.0 °F64.4 °F88 %29.83 in5.0 miVariable2.3 mphPartly Cloudy
6:00 AM66.2 °F64.4 °F94 %29.83 in4.3 miCalmPartly Cloudy
7:00 AM69.0 °F65.0 °F85 %29.85 in4.0 miCalmMist
7:00 AM69.8 °F66.2 °F88 %29.86 in4.3 miCalmPartly Cloudy
8:00 AM73.4 °F68.0 °F83 %29.89 inVariable2.3 mphClear
9:00 AM75.2 °F68.0 °F78 %29.89 inWNW (290°)4.6 mphClear
10:00 AM77.0 °F70.0 °F72 %29.87 in6.0 miWNW (300°)6.9 mphPartly Cloudy
10:00 AM77.0 °F69.8 °F78 %29.89 inWNW (300°)6.9 mphClear
11:00 AM77.0 °F69.8 °F78 %29.86 inWNW (290°)8.1 mphClear
12:00 PM77.0 °F69.8 °F78 %29.86 inWest (280°)9.2 mphClear
1:00 PM78.0 °F70.0 °F69 %29.84 in6.0 miWNW (290°)8.1 mphPartly Cloudy
1:00 PM78.8 °F69.8 °F74 %29.86 inWNW (290°)8.1 mphClear
2:00 PM78.8 °F68.0 °F69 %29.83 inWNW (290°)5.8 mphClear
3:00 PM82.4 °F69.8 °F66 %29.83 inWSW (240°)15.0 mphClear
4:00 PM80.0 °F70.0 °F63 %29.81 in6.0 miWest (280°)9.2 mphPartly Cloudy
4:00 PM80.6 °F69.8 °F70 %29.80 inWest (280°)9.2 mphClear
5:00 PM80.6 °F69.8 °F70 %29.80 inWSW (240°)12.7 mphClear
6:00 PM77.0 °F66.2 °F69 %29.80 inSW (220°)19.6 mphClear
7:00 PM73.0 °F67.0 °F75 %29.81 in6.0 miSW (220°)19.6 mphPartly Cloudy
7:00 PM73.4 °F66.2 °F78 %29.83 inSW (220°)19.6 mphClear
8:00 PM71.6 °F66.2 °F83 %29.83 inSSW (210°)17.3 mphClear
9:00 PM71.6 °F66.2 °F83 %29.86 inSSW (210°)12.7 mphClear
10:00 PM71.0 °F66.0 °F79 %29.86 in6.0 miSSW (210°)10.4 mphPartly Cloudy
10:00 PM71.6 °F66.2 °F83 %29.86 inSSW (210°)10.4 mphClear
11:00 PM71.6 °F66.2 °F83 %29.89 inSSW (210°)6.9 mphClear
Hourly data recorded from SPSO, located miles away from Pisco, Peru







STORIES FROM OUR PARTNERS